View from above orbital plane
|
View from above satellite
|
Ground track
|
The orbit data is extracted from the following two-line orbital elements,
1 30775U 07006D 19345.83906353 +.00000611 +00000-0 +24187-4 0 9998
2 30775 035.4284 185.8782 0002844 182.9823 177.0884 15.27360402706334
Epoch (UTC): | 11 December 2019 20:08:15 |
Eccentricity: | 0.0002844 |
inclination: | 35.4284° |
perigee height: | 482 km |
apogee height: | 485 km |
right ascension of ascending node: | 185.8782° |
argument of perigee: | 182.9823° |
revolutions per day: | 15.27360402 |
mean anomaly at epoch: | 177.0884° |
orbit number at epoch: | 70633 |
The dashed part of the orbit path shows where the satellite is in the earth's shadow,
|
|